map of LBV home
Great Circle Mapper logo
LBV - Airport
Location
City:  Libreville, Gabon
Name:Leon M'Ba
ICAO / IATA:FOOL / LBV

Details
Type:Airport (Aerodrome, Airfield)
Use:Public/Civil, Military, International (customs port of entry)
Latitude:027'31"N (0.458600)
Longitude:924'44"E (9.412283)
Datum:WGS 1984
Elevation:39 ft (12 m)
Variation:2.24W (WMM2015 magnetic declination)
0.13 annual change
Runways:1
Longest:9844 × 148 ft (3000 × 45 m), paved

Time
Time Zone:UTC+1
Local Time:

Weather
METAR:FOOL 021200Z 21008KT 180V240 9999 SCT013 28/22 Q1015 NOSIG
TAF:FOOL 021100Z 0212/0318 20008KT 9999 SCT010 BKN030 PROB30
TEMPO 0300/0306 4500 RADZ BKN008 OVC026

Related Locations
Nearby:
Farthest:CIS: 12257 mi / 19725 km
Canton Island, KI

Find:

   beyond  
but within

Other Information
Maps:
NOTAMs:
Links:
Sources:

  
flag of Gabon   

Sectional Chart

Flight Planning
at skyvector.com

Satellite Image

Google Maps Satellite view

 

Copyright © 2004-2015 Karl L. Swartz. All rights reserved.
The Great Circle Mapper name and logo are trademarks of the Great Circle Mapper.
All other trademarks mentioned herein belong to their respective owners.
Please see credits for attibutions and further copyright information.

  Follow gcmap on Facebook Follow gcmap on Twitter Follow gcmap on Google+

hCard Microformat

Geo Microformat